SWA4264 KSJC-KSAN

Flight info

Callsign SWA4264
Flight time 0h 59m
Altitude 39000
Route SPTNS1 VLREE EBAYE AVE FIM J1 LAX COMIX2
Aircraft B737/M-SDE2E3FGHIRWXY/LB1

Departure

Time 2026-05-07 21:53
Airport Norman Y. Mineta San Jose International Airport (KSJC)

Arrival

Time 2026-05-07 22:52
Airport San Diego International Airport (KSAN)
Time Latitude Longitude Altitude Speed Heading
2026-05-07 21:37 37.36172 -121.92179 60 ft 0 kts 49°
2026-05-07 21:46 37.36163 -121.92192 60 ft 4 kts 49°
2026-05-07 21:46 37.36146 -121.92216 55 ft 3 kts 49°
2026-05-07 21:46 37.36133 -121.92238 60 ft 4 kts 72°
2026-05-07 21:47 37.36134 -121.92264 52 ft 4 kts 137°
2026-05-07 21:47 37.36149 -121.92280 60 ft 0 kts 139°
2026-05-07 21:49 37.36144 -121.92274 60 ft 5 kts 139°
2026-05-07 21:49 37.36098 -121.92224 53 ft 10 kts 139°
2026-05-07 21:49 37.36045 -121.92166 59 ft 10 kts 139°
2026-05-07 21:49 37.35984 -121.92100 60 ft 13 kts 139°
2026-05-07 21:50 37.35904 -121.92011 59 ft 17 kts 139°
2026-05-07 21:50 37.35816 -121.91914 52 ft 17 kts 139°
2026-05-07 21:50 37.35729 -121.91818 61 ft 16 kts 139°
2026-05-07 21:50 37.35645 -121.91726 56 ft 16 kts 139°
2026-05-07 21:51 37.35564 -121.91638 59 ft 15 kts 139°
2026-05-07 21:51 37.35487 -121.91554 55 ft 14 kts 139°
2026-05-07 21:51 37.35413 -121.91473 52 ft 14 kts 139°
2026-05-07 21:51 37.35333 -121.91422 56 ft 13 kts 192°
2026-05-07 21:52 37.35269 -121.91500 58 ft 13 kts 229°
2026-05-07 21:52 37.35210 -121.91583 60 ft 13 kts 229°
2026-05-07 21:52 37.35147 -121.91676 61 ft 14 kts 232°
2026-05-07 21:52 37.35166 -121.91780 56 ft 14 kts 317°
2026-05-07 21:53 37.35340 -121.91971 61 ft 74 kts 319°
2026-05-07 21:53 37.35947 -121.92641 182 ft 145 kts 318°
2026-05-07 21:53 37.36777 -121.93564 913 ft 172 kts 319°
2026-05-07 21:53 37.37758 -121.94620 1715 ft 198 kts 317°
2026-05-07 21:54 37.38868 -121.95808 2338 ft 227 kts 317°
2026-05-07 21:54 37.40135 -121.97173 3014 ft 252 kts 323°
2026-05-07 21:54 37.41826 -121.97922 4056 ft 266 kts 356°
2026-05-07 21:54 37.43668 -121.97494 4775 ft 276 kts 25°
2026-05-07 21:55 37.45089 -121.95919 4991 ft 279 kts 56°
2026-05-07 21:55 37.45750 -121.93637 5003 ft 285 kts 84°
2026-05-07 21:55 37.45496 -121.91200 5035 ft 282 kts 115°
2026-05-07 21:55 37.44303 -121.89284 5370 ft 280 kts 143°
2026-05-07 21:56 37.42732 -121.87831 6592 ft 281 kts 147°
2026-05-07 21:56 37.41126 -121.86398 7768 ft 283 kts 147°
2026-05-07 21:56 37.39516 -121.84947 8948 ft 287 kts 146°
2026-05-07 21:56 37.37891 -121.83459 10073 ft 291 kts 146°
2026-05-07 21:57 37.36219 -121.81907 10797 ft 310 kts 146°
2026-05-07 21:57 37.34393 -121.80215 11043 ft 343 kts 145°
2026-05-07 21:57 37.32429 -121.78378 11275 ft 372 kts 144°
2026-05-07 21:57 37.30409 -121.76237 11918 ft 385 kts 140°
2026-05-07 21:58 37.28418 -121.73950 12790 ft 390 kts 139°
2026-05-07 21:58 37.26423 -121.71619 13717 ft 393 kts 138°
2026-05-07 21:58 37.24406 -121.69272 14503 ft 398 kts 138°
2026-05-07 21:58 37.22359 -121.66915 15299 ft 401 kts 138°
2026-05-07 21:59 37.20283 -121.64545 16057 ft 405 kts 138°
2026-05-07 21:59 37.18179 -121.62156 16760 ft 412 kts 138°
2026-05-07 21:59 37.16067 -121.59768 17485 ft 416 kts 138°
2026-05-07 21:59 37.13911 -121.57334 18206 ft 420 kts 137°
2026-05-07 22:00 37.11729 -121.54872 18815 ft 425 kts 137°
2026-05-07 22:00 37.09521 -121.52384 19438 ft 429 kts 137°
2026-05-07 22:00 37.07295 -121.49876 20071 ft 432 kts 137°
2026-05-07 22:00 37.05048 -121.47372 20739 ft 434 kts 139°
2026-05-07 22:01 37.02754 -121.44899 21388 ft 436 kts 139°
2026-05-07 22:01 37.00430 -121.42433 21969 ft 440 kts 139°
2026-05-07 22:01 36.98075 -121.39945 22535 ft 444 kts 140°
2026-05-07 22:01 36.95707 -121.37441 23110 ft 447 kts 140°
2026-05-07 22:02 36.93359 -121.34953 23665 ft 451 kts 139°
2026-05-07 22:02 36.90962 -121.32408 24115 ft 454 kts 139°
2026-05-07 22:02 36.88548 -121.29843 24551 ft 457 kts 139°
2026-05-07 22:02 36.86124 -121.27269 24989 ft 460 kts 139°
2026-05-07 22:03 36.83681 -121.24677 25444 ft 463 kts 139°
2026-05-07 22:03 36.81218 -121.22066 25916 ft 465 kts 139°
2026-05-07 22:03 36.78752 -121.19451 26353 ft 467 kts 139°
2026-05-07 22:03 36.76270 -121.16822 26746 ft 470 kts 139°
2026-05-07 22:04 36.73770 -121.14177 27145 ft 473 kts 139°
2026-05-07 22:04 36.71293 -121.11559 27530 ft 475 kts 139°
2026-05-07 22:04 36.68763 -121.08886 27904 ft 478 kts 140°
2026-05-07 22:04 36.66221 -121.06203 28260 ft 480 kts 140°
2026-05-07 22:05 36.63668 -121.03511 28609 ft 482 kts 140°
2026-05-07 22:05 36.61105 -121.00812 28979 ft 483 kts 140°
2026-05-07 22:05 36.58528 -120.98136 29464 ft 482 kts 140°
2026-05-07 22:05 36.55931 -120.95489 29947 ft 482 kts 141°
2026-05-07 22:06 36.53340 -120.92870 30444 ft 479 kts 141°
2026-05-07 22:06 36.50757 -120.90263 30932 ft 477 kts 141°
2026-05-07 22:06 36.48187 -120.87666 31392 ft 476 kts 141°
2026-05-07 22:06 36.45662 -120.85112 31809 ft 475 kts 141°
2026-05-07 22:07 36.43098 -120.82516 32227 ft 474 kts 141°
2026-05-07 22:07 36.40548 -120.79934 32654 ft 473 kts 141°
2026-05-07 22:07 36.38000 -120.77355 33087 ft 472 kts 141°
2026-05-07 22:07 36.35461 -120.74787 33488 ft 471 kts 141°
2026-05-07 22:08 36.32925 -120.72226 33886 ft 470 kts 141°
2026-05-07 22:08 36.30386 -120.69664 34253 ft 469 kts 141°
2026-05-07 22:08 36.27890 -120.67145 34545 ft 470 kts 141°
2026-05-07 22:08 36.25352 -120.64586 34758 ft 472 kts 141°
2026-05-07 22:09 36.22796 -120.62013 35011 ft 473 kts 141°
2026-05-07 22:09 36.20243 -120.59444 35303 ft 473 kts 141°
2026-05-07 22:09 36.17683 -120.56871 35538 ft 475 kts 141°
2026-05-07 22:09 36.15119 -120.54296 35804 ft 475 kts 141°
2026-05-07 22:10 36.12559 -120.51727 36183 ft 472 kts 141°
2026-05-07 22:10 36.10005 -120.49169 36458 ft 473 kts 141°
2026-05-07 22:10 36.07471 -120.46630 36597 ft 476 kts 141°
2026-05-07 22:10 36.04902 -120.44059 36851 ft 476 kts 141°
2026-05-07 22:11 36.02332 -120.41489 37193 ft 474 kts 141°
2026-05-07 22:11 35.99763 -120.38923 37484 ft 474 kts 141°
2026-05-07 22:11 35.97205 -120.36369 37751 ft 474 kts 141°
2026-05-07 22:11 35.94640 -120.33810 37999 ft 474 kts 141°
2026-05-07 22:12 35.92069 -120.31247 38197 ft 475 kts 141°
2026-05-07 22:12 35.89497 -120.28685 38355 ft 477 kts 141°
2026-05-07 22:12 35.86918 -120.26100 38595 ft 477 kts 139°
2026-05-07 22:12 35.84504 -120.23300 38840 ft 476 kts 134°
2026-05-07 22:13 35.82204 -120.20361 39038 ft 477 kts 133°
2026-05-07 22:13 35.79928 -120.17371 39058 ft 480 kts 133°
2026-05-07 22:13 35.75384 -120.11455 39055 ft 477 kts 133°
2026-05-07 22:14 35.70772 -120.05586 39067 ft 476 kts 133°
2026-05-07 22:14 35.66155 -119.99746 39070 ft 476 kts 134°
2026-05-07 22:15 35.61080 -119.94550 39073 ft 476 kts 144°
2026-05-07 22:15 35.55662 -119.89943 39066 ft 477 kts 145°
2026-05-07 22:16 35.50201 -119.85320 39066 ft 478 kts 145°
2026-05-07 22:16 35.44741 -119.80643 39067 ft 478 kts 144°
2026-05-07 22:17 35.39293 -119.75948 39049 ft 479 kts 144°
2026-05-07 22:17 35.33839 -119.71250 39056 ft 479 kts 144°
2026-05-07 22:18 35.25680 -119.64240 39050 ft 480 kts 144°
2026-05-07 22:19 35.20207 -119.59550 39042 ft 481 kts 144°
2026-05-07 22:19 35.14726 -119.54856 39061 ft 481 kts 144°
2026-05-07 22:20 35.09238 -119.50172 39065 ft 481 kts 144°
2026-05-07 22:20 35.03740 -119.45486 39042 ft 482 kts 144°
2026-05-07 22:21 34.98280 -119.40837 39052 ft 482 kts 144°
2026-05-07 22:21 34.95526 -119.38496 38875 ft 485 kts 144°
2026-05-07 22:21 34.92761 -119.36147 38619 ft 482 kts 144°
2026-05-07 22:21 34.90026 -119.33825 38345 ft 478 kts 144°
2026-05-07 22:22 34.87305 -119.31519 38071 ft 476 kts 144°
2026-05-07 22:22 34.84575 -119.29205 37805 ft 478 kts 144°
2026-05-07 22:22 34.81852 -119.26900 37543 ft 478 kts 144°
2026-05-07 22:22 34.79121 -119.24589 37300 ft 478 kts 144°
2026-05-07 22:23 34.76397 -119.22286 37038 ft 476 kts 144°
2026-05-07 22:23 34.73714 -119.20020 36787 ft 475 kts 144°
2026-05-07 22:23 34.71003 -119.17732 36527 ft 474 kts 144°
2026-05-07 22:23 34.68296 -119.15451 36290 ft 473 kts 144°
2026-05-07 22:24 34.65601 -119.13179 36028 ft 471 kts 144°
2026-05-07 22:24 34.62912 -119.10917 35783 ft 470 kts 143°
2026-05-07 22:24 34.60225 -119.08657 35539 ft 469 kts 143°
2026-05-07 22:24 34.57552 -119.06408 35295 ft 468 kts 143°
2026-05-07 22:25 34.54881 -119.04164 35047 ft 466 kts 143°
2026-05-07 22:25 34.52220 -119.01931 34798 ft 465 kts 143°
2026-05-07 22:25 34.49597 -118.99730 34555 ft 464 kts 143°
2026-05-07 22:25 34.46943 -118.97506 34335 ft 463 kts 143°
2026-05-07 22:26 34.44297 -118.95290 34113 ft 463 kts 143°
2026-05-07 22:26 34.41650 -118.93075 33851 ft 462 kts 143°
2026-05-07 22:26 34.39004 -118.90862 33587 ft 463 kts 143°
2026-05-07 22:26 34.36353 -118.88646 33309 ft 464 kts 143°
2026-05-07 22:27 34.33792 -118.86269 33041 ft 464 kts 138°
2026-05-07 22:27 34.31350 -118.83714 32784 ft 464 kts 136°
2026-05-07 22:27 34.28958 -118.81111 32527 ft 464 kts 136°
2026-05-07 22:27 34.26596 -118.78523 32272 ft 464 kts 136°
2026-05-07 22:28 34.24197 -118.75913 32013 ft 464 kts 136°
2026-05-07 22:28 34.21793 -118.73324 31764 ft 464 kts 136°
2026-05-07 22:28 34.19374 -118.70741 31523 ft 464 kts 136°
2026-05-07 22:28 34.16943 -118.68160 31266 ft 465 kts 136°
2026-05-07 22:29 34.14516 -118.65590 31030 ft 465 kts 137°
2026-05-07 22:29 34.12083 -118.63018 30791 ft 466 kts 137°
2026-05-07 22:29 34.09634 -118.60429 30554 ft 468 kts 137°
2026-05-07 22:29 34.07186 -118.57841 30348 ft 470 kts 137°
2026-05-07 22:30 34.04752 -118.55271 30128 ft 471 kts 137°
2026-05-07 22:30 34.02284 -118.52665 29864 ft 472 kts 137°
2026-05-07 22:30 33.99811 -118.50057 29582 ft 473 kts 137°
2026-05-07 22:30 33.97335 -118.47448 29317 ft 474 kts 137°
2026-05-07 22:31 33.94850 -118.44832 29041 ft 474 kts 137°
2026-05-07 22:31 33.92396 -118.42187 28775 ft 474 kts 134°
2026-05-07 22:31 33.90100 -118.39344 28513 ft 473 kts 130°
2026-05-07 22:31 33.87895 -118.36405 28268 ft 473 kts 130°
2026-05-07 22:32 33.85702 -118.33445 27989 ft 474 kts 130°
2026-05-07 22:32 33.83489 -118.30498 27732 ft 475 kts 130°
2026-05-07 22:32 33.81245 -118.27567 27478 ft 477 kts 130°
2026-05-07 22:32 33.78986 -118.24649 27233 ft 478 kts 131°
2026-05-07 22:33 33.76719 -118.21724 26984 ft 478 kts 131°
2026-05-07 22:33 33.74496 -118.18822 26738 ft 479 kts 130°
2026-05-07 22:33 33.72249 -118.15865 26500 ft 479 kts 130°
2026-05-07 22:33 33.70011 -118.12915 26252 ft 479 kts 130°
2026-05-07 22:34 33.67757 -118.09948 26012 ft 480 kts 130°
2026-05-07 22:34 33.65507 -118.06992 25779 ft 480 kts 130°
2026-05-07 22:34 33.63244 -118.04026 25541 ft 482 kts 130°
2026-05-07 22:34 33.60973 -118.01054 25307 ft 484 kts 130°
2026-05-07 22:35 33.58697 -117.98076 25076 ft 485 kts 130°
2026-05-07 22:35 33.56446 -117.95134 24846 ft 486 kts 130°
2026-05-07 22:35 33.54141 -117.92168 24612 ft 485 kts 132°
2026-05-07 22:35 33.51740 -117.89332 24385 ft 484 kts 134°
2026-05-07 22:36 33.49296 -117.86570 24162 ft 482 kts 135°
2026-05-07 22:36 33.46862 -117.83810 23937 ft 480 kts 134°
2026-05-07 22:36 33.44462 -117.81051 23711 ft 478 kts 134°
2026-05-07 22:36 33.42058 -117.78320 23476 ft 476 kts 135°
2026-05-07 22:37 33.39595 -117.75676 23208 ft 474 kts 136°
2026-05-07 22:37 33.37125 -117.73085 22946 ft 472 kts 137°
2026-05-07 22:37 33.34663 -117.70503 22682 ft 470 kts 136°
2026-05-07 22:37 33.32223 -117.67926 21969 ft 466 kts 136°
2026-05-07 22:38 33.29807 -117.65355 20954 ft 460 kts 136°
2026-05-07 22:38 33.27474 -117.62867 20008 ft 452 kts 136°
2026-05-07 22:38 33.25143 -117.60383 19067 ft 446 kts 136°
2026-05-07 22:38 33.22852 -117.57957 18244 ft 433 kts 136°
2026-05-07 22:39 33.20603 -117.55592 17344 ft 427 kts 136°
2026-05-07 22:39 33.18389 -117.53267 16549 ft 422 kts 136°
2026-05-07 22:39 33.16195 -117.50959 15788 ft 418 kts 136°
2026-05-07 22:39 33.14014 -117.48668 15377 ft 417 kts 136°
2026-05-07 22:40 33.11785 -117.46556 15228 ft 403 kts 142°
2026-05-07 22:40 33.09504 -117.44726 15052 ft 386 kts 144°
2026-05-07 22:40 33.07296 -117.42970 14545 ft 376 kts 143°
2026-05-07 22:40 33.05149 -117.41221 13853 ft 373 kts 143°
2026-05-07 22:41 33.03034 -117.39461 12829 ft 379 kts 143°
2026-05-07 22:41 33.00899 -117.37666 12316 ft 369 kts 143°
2026-05-07 22:41 32.98826 -117.35923 11851 ft 359 kts 143°
2026-05-07 22:41 32.96825 -117.34241 11406 ft 343 kts 143°
2026-05-07 22:42 32.94926 -117.32650 11051 ft 323 kts 143°
2026-05-07 22:42 32.93161 -117.31174 10992 ft 298 kts 143°
2026-05-07 22:42 32.91501 -117.29786 10982 ft 290 kts 143°
2026-05-07 22:42 32.89831 -117.28392 10744 ft 295 kts 143°
2026-05-07 22:43 32.88157 -117.27000 10348 ft 294 kts 143°
2026-05-07 22:43 32.86472 -117.25598 9849 ft 297 kts 143°
2026-05-07 22:43 32.84803 -117.24213 9401 ft 296 kts 144°
2026-05-07 22:43 32.83121 -117.22818 8978 ft 295 kts 144°
2026-05-07 22:44 32.81561 -117.21260 8518 ft 293 kts 126°
2026-05-07 22:44 32.80662 -117.19145 8025 ft 285 kts 105°
2026-05-07 22:44 32.80146 -117.16867 7335 ft 285 kts 102°
2026-05-07 22:44 32.79666 -117.14565 6642 ft 290 kts 102°
2026-05-07 22:45 32.79168 -117.12235 6067 ft 290 kts 103°
2026-05-07 22:45 32.78662 -117.09929 5552 ft 287 kts 103°
2026-05-07 22:45 32.78159 -117.07670 5129 ft 287 kts 103°
2026-05-07 22:45 32.77575 -117.05401 5031 ft 288 kts 111°
2026-05-07 22:46 32.76740 -117.03240 4981 ft 284 kts 115°
2026-05-07 22:46 32.75894 -117.01178 4765 ft 272 kts 115°
2026-05-07 22:46 32.75097 -116.99204 4503 ft 258 kts 115°
2026-05-07 22:46 32.74429 -116.97272 4184 ft 249 kts 114°
2026-05-07 22:47 32.73370 -116.95702 3868 ft 242 kts 147°
2026-05-07 22:47 32.71865 -116.95095 3777 ft 220 kts 181°
2026-05-07 22:47 32.70496 -116.95551 3765 ft 198 kts 219°
2026-05-07 22:47 32.69686 -116.96782 3796 ft 188 kts 248°
2026-05-07 22:48 32.69170 -116.98203 3780 ft 192 kts 250°
2026-05-07 22:48 32.68775 -116.99712 3763 ft 191 kts 271°
2026-05-07 22:48 32.69089 -117.01207 3799 ft 188 kts 288°
2026-05-07 22:48 32.69444 -117.02715 3783 ft 190 kts 286°
2026-05-07 22:49 32.69801 -117.04245 3541 ft 194 kts 287°
2026-05-07 22:49 32.70169 -117.05815 3197 ft 201 kts 287°
2026-05-07 22:49 32.70551 -117.07386 2949 ft 191 kts 286°
2026-05-07 22:49 32.70901 -117.08850 2699 ft 179 kts 286°
2026-05-07 22:50 32.71235 -117.10236 2355 ft 170 kts 285°
2026-05-07 22:50 32.71549 -117.11534 2054 ft 161 kts 285°
2026-05-07 22:50 32.71853 -117.12735 1758 ft 143 kts 285°
2026-05-07 22:50 32.72127 -117.13818 1408 ft 132 kts 284°
2026-05-07 22:51 32.72363 -117.14841 1085 ft 128 kts 282°
2026-05-07 22:51 32.72606 -117.15865 737 ft 128 kts 283°
2026-05-07 22:51 32.72766 -117.16529 512 ft 125 kts 285°
2026-05-07 22:51 32.73007 -117.17509 198 ft 123 kts 284°
2026-05-07 22:52 32.73300 -117.18732 12 ft 100 kts 286°
2026-05-07 22:52 32.73401 -117.19152 18 ft 57 kts 286°
2026-05-07 22:52 32.73437 -117.19469 23 ft 16 kts 246°
2026-05-07 22:52 32.73398 -117.19505 23 ft 0 kts 186°
2026-05-07 22:53 32.73389 -117.19505 24 ft 5 kts 174°
2026-05-07 22:54 32.73333 -117.19476 22 ft 10 kts 110°
2026-05-07 22:54 32.73347 -117.19404 21 ft 8 kts 76°
2026-05-07 22:54 32.73341 -117.19325 20 ft 7 kts 105°
2026-05-07 22:54 32.73306 -117.19287 19 ft 7 kts 166°